Weather in Chernishnya

Russia / Kaluga Oblast     55°10′39″N   37°00′11″E
temp.,
°C
wind,
m/s
gust,
m/s
humid.,
%
clouds,
%
prec.,
mm/h
press.,
hPa
HPBL,
m
17 april, sat
sat1700:00+9ene4129173 0.6 1019560
03:00+9ene41095100 0.8 1020363
06:00+9ene51094100 1.4 1020533
09:00+9ene4992100 1.4 1021487
12:00+12ene5978100 0.2 1020790
15:00+15ene6116381 0.4 10191544
18:00+14ene61265100 1.3 10171147
21:00+11ene51274100 1.9 1019720
18 april, sun
sun1800:00+9ene51375100 0.1 1019697
03:00+7ene51271100 0.1 1019727
06:00+6e4790100 1.9 1019569
09:00+5ne4893100 6.1 1021393
12:00+6ene4792100 0.1 1021515
15:00+7ne4788100 0.1 1022669
18:00+6ene5987100 0.0 1022774
21:00+6ene4993100 0.1 1023619
19 april, mon
mon1900:00+5ene3891100 0.0 1023479
03:00+6ene41089100 0.0 1023670
06:00+6ene4991100 0.0 1023832
09:00+6ene4992100 0.1 1023884
12:00+5ene5991100 0.3 1023871
15:00+5ene5994100 0.6 1024826
18:00+4ene51095100 1.4 1023764
21:00+5ene41194100 1.7 1023966
20 april, tue
tue2000:00+5e5118399 0.3 1022903
03:00+4ene5128397 0.3 1021683
06:00+2ene51397100 0.3 1020511
09:00+2ene61497100 1.1 1018573
12:00+3ene61493100 1.2 1016856
15:00+4ene71593100 1.8 1013954
18:00+6e81893100 3.9 10081212
21:00+6e92092100 11.1 10031348
21 april, wed
wed2100:00+6ese81893100 5.4 10011174
03:00+8ese61495100 6.2 998827
06:00+8se61389100 1.3 9981185
09:00+8se61390100 2.6 9971420
12:00+4s61391100 0.3 10021108
15:00+6s81684100 0.4 10041543
18:00+7ssw7178098 0.1 10071482
21:00+7ssw5138211 0.2 10101325